Regional Weather Roundup
Issued by NWS

Home | Current Version | Previous Version | Text Only | Print | Product List | Glossary On
Versions: 1 2 3 4 5 6 7 8 9 10 11 12 13 14 15 16 17 18 19 20 21 22 23 24 25 26 27 28 29 30 31 32 33 34 35 36 37 38 39 40 41 42 43 44 45 46 47 48 49 50
000
ASUS43 KFSD 211610
RWRSD

WEATHER ROUNDUP FOR SOUTH DAKOTA
NATIONAL WEATHER SERVICE SIOUX FALLS SD
1100 AM CDT TUE OCT 21 2014

NOTE: "FAIR" INDICATES FEW OR NO CLOUDS BELOW 12,000 FEET WITH NO
SIGNIFICANT WEATHER AND/OR OBSTRUCTIONS TO VISIBILITY.


SDZ001>005-009-010-012>017-211700-
NORTHWEST AND NORTH CENTRAL SOUTH DAKOTA

CITY           SKY/WX    TMP DP  RH WIND       PRES   REMARKS
BUFFALO          N/A     61  45  55 SE5       29.69F
FAITH            N/A     63  45  51 S21       29.78F
MOBRIDGE       SUNNY     64  44  48 S20       29.80F
$$

SDZ012>016-024>037-041>051-057-063-072>074-211700-
SOUTHWEST AND SOUTH CENTRAL SOUTH DAKOTA

CITY           SKY/WX    TMP DP  RH WIND       PRES   REMARKS
RAPID CTY ARPT SUNNY     64  43  46 SE8       29.83F
PIERRE         SUNNY     66  43  43 SE13      29.85F
CUSTER         SUNNY     64  38  38 SW5       29.96F
ELLSWORTH AFB  MOSUNNY   65  44  46 S8        29.83S
PHILIP         SUNNY     69  47  45 S13       29.83F
PINE RIDGE     SUNNY     62  46  55 S14       29.90S
SPEARFISH      FAIR      72  41  33 SW20      29.83F
WINNER         FAIR      71  46  40 S24G36    29.92S
$$

SDZ004>011-016>023-039-040-211700-
NORTHEAST SOUTH DAKOTA

CITY           SKY/WX    TMP DP  RH WIND       PRES   REMARKS
ABERDEEN       SUNNY     63  40  42 S21G31    29.92F
WATERTOWN      SUNNY     60  40  47 SE13G21   30.00F
SISSETON         N/A     50  40  68 S13       30.01F
$$

SDZ017-020-022-023-036>040-048>070-211700-
SOUTHEAST SOUTH DAKOTA

CITY           SKY/WX    TMP DP  RH WIND       PRES   REMARKS
SIOUX FALLS    SUNNY     61  42  49 SE12      30.06F
HURON          SUNNY     62  40  44 S14G22    29.96F
CHAMBERLAIN    SUNNY     67  45  44 S9        29.93F
MITCHELL       SUNNY     63  42  46 S14       29.99F
YANKTON        SUNNY     63  45  51 SE10      30.04F
$$

ABBREVIATIONS USED IN REMARKS
   TC - TEMPERATURE IN CELSIUS
  WCI - WIND CHILL INDEX
   HX - HEAT INDEX
  VSB - VISIBILITY



USA.gov is the U.S. government's official web portal to all federal, state and local government web resources and services.